Hourly Data Report for October 27, 2014

All times are specified in Local Standard Time (LST). Add 1 hour to adjust for Daylight Saving Time where and when it is observed.

WINNIPEG A CS
MANITOBA

49°55'00.000" N
97°14'58.000" W
238.70 m
502S001
71849
XWG

Download Data

Hourly Data (October 2014)
Hourly Data Report for October 27, 2014
Temp Definition
°C
Dew Point Temp Definition
°C
Rel Hum Definition
%
Wind Dir Definition
10's deg

Wind Spd Definition
km/h
Visibility Definition
km
Stn Press Definition
kPa
Hmdx Definition


Wind Chill Definition


Weather Definition


TIME
00:00 6.2 -0.1 64 16 16   96.90     LegendNANA
01:00 7.0 -0.6 59 19 13   96.90     LegendNANA
02:00 6.4 0.2 65 21 12   96.93     LegendNANA
03:00 5.6 1.5 75 24 16   97.02     LegendNANA
04:00 4.1 1.4 83 26 15   97.05     LegendNANA
05:00 2.8 0.8 87 26 16   97.10     LegendNANA
06:00 1.5 0.1 91 27 15   97.17     LegendNANA
07:00 2.7 1.4 92 27 16   97.24     LegendNANA
08:00 3.9 2.0 88 27 14   97.32     LegendNANA
09:00 5.3 2.4 82 28 19   97.30     LegendNANA
10:00 6.7 2.9 77 29 22   97.32     LegendNANA
11:00 7.1 3.2 76 29 14   97.37     LegendNANA
12:00 7.2 2.8 74 29 18   97.42     LegendNANA
13:00 6.8 2.6 74 28 17   97.44     LegendNANA
14:00 6.8 2.8 75 28 15   97.42     LegendNANA
15:00 6.7 2.8 76 29 19   97.44     LegendNANA
16:00 6.4 3.1 79 30 18   97.51     LegendNANA
17:00 6.2 2.5 77 29 11   97.54     LegendNANA
18:00 5.9 2.9 81 28 10   97.57     LegendNANA
19:00 5.8 3.0 82 27 11   97.60     LegendNANA
20:00 5.6 3.1 84 31 15   97.59     LegendNANA
21:00 5.3 2.9 85 32 14   97.60     LegendNANA
22:00 5.0 2.8 85 32 16   97.61     LegendNANA
23:00 4.3 3.0 92 36 18   97.62     LegendNANA

Notes on Data Quality.

Legend

  • E = Estimated
  • M = Missing
  • NA = Not Available
  • ‡ = Partner data that is not subject to review by the National Climate Archives
Date modified: